This is the latest recevied weather packets stored in our database for station/object G6UIM. If no packets are shown the sender has not sent any weather packets the latest 10 day(s).
| Time | Temp. | Humidity | Pressure | Rain* | Wind** | Luminosity | Snow |
|---|---|---|---|---|---|---|---|
| 1777704616 | 9.44° C | 91% | 1018.8 hPa | 0 mm | - | 136 W/m² | - |
| 1777704056 | 9.44° C | 91% | 1018.9 hPa | 0 mm | - | 71 W/m² | - |
| 1777701016 | 9.44° C | 91% | 1018.8 hPa | 0 mm | - | 62 W/m² | - |
| 1777698017 | 8.89° C | 91% | 1019.3 hPa | 0 mm | - | 3 W/m² | - |
| 1777697438 | 8.89° C | 91% | 1019.3 hPa | 0 mm | - | 0 W/m² | - |
| 1777695618 | 8.33° C | 91% | 1019.5 hPa | 0 mm | - | 0 W/m² | - |
| 1777692617 | 8.89° C | 90% | 1019.7 hPa | 0 mm | - | 0 W/m² | - |
| 1777690817 | 8.89° C | 90% | 1019.7 hPa | 0 mm | - | 0 W/m² | - |
| 1777689017 | 9.44° C | 90% | 1019.9 hPa | 0 mm | - | 0 W/m² | - |
| 1777686617 | 9.44° C | 90% | 1020.5 hPa | 0 mm | - | 0 W/m² | - |
| 1777685417 | 9.44° C | 90% | 1020.9 hPa | 0 mm | - | 0 W/m² | - |
| 1777684217 | 9.44° C | 89% | 1020.9 hPa | 0 mm | - | 0 W/m² | - |
| 1777683617 | 9.44° C | 89% | 1021.1 hPa | 0 mm | - | 0 W/m² | - |
| 1777681818 | 10° C | 89% | 1021.2 hPa | 0 mm | - | 0 W/m² | - |
| 1777679417 | 10.56° C | 88% | 1021.4 hPa | 0 mm | - | 0 W/m² | - |
| 1777678817 | 10.56° C | 88% | 1021.5 hPa | 0 mm | - | 0 W/m² | - |
| 1777676417 | 10.56° C | 87% | 1021.5 hPa | 0 mm | - | 0 W/m² | - |
| 1777675817 | 11.11° C | 87% | 1021.5 hPa | 0 mm | - | 0 W/m² | - |
| 1777675217 | 11.11° C | 87% | 1021.6 hPa | 0 mm | - | 0 W/m² | - |
| 1777673417 | 11.67° C | 87% | 1021.6 hPa | 0 mm | - | 0 W/m² | - |
| 1777672817 | 11.67° C | 87% | 1021.6 hPa | 0 mm | - | 0 W/m² | - |
| 1777672217 | 11.67° C | 86% | 1021.7 hPa | 0 mm | - | 0 W/m² | - |
| 1777671617 | 11.67° C | 86% | 1021.7 hPa | 0 mm | - | 0 W/m² | - |
| 1777670416 | 11.67° C | 85% | 1021.8 hPa | 0 mm | - | 0 W/m² | - |
| 1777669837 | 12.22° C | 85% | 1021.8 hPa | 0 mm | - | 0 W/m² | - |
* Rain latest hour (hover to see other rain measurements)
** Current wind speed in m/s (hover to see current wind gust speed)